HVDC transfer

From www.emi.ea.govt.nz provided by the Electricity Authority (New Zealand)
Run at: 20240502173257

Parameters
Date range,04 Nov 2021 - 01 Dec 2021
Time scale,Trading period
Show,Average flow (MW)

Period start,Period end,Trading period,Direction,Energy transfer (GWh),Peak flow (MW),Average flow (MW)
04/11/2021 00:00:00,04/11/2021 00:30:00,1,Northward at Haywards,0.018,35,35
04/11/2021 00:30:00,04/11/2021 01:00:00,2,Northward at Haywards,0.018,35,35
04/11/2021 01:00:00,04/11/2021 01:30:00,3,Southward at Benmore,-0.003,-6,-6
04/11/2021 01:30:00,04/11/2021 02:00:00,4,Northward at Haywards,0.003,6,6
04/11/2021 02:00:00,04/11/2021 02:30:00,5,Southward at Benmore,-0.008,-17,-17
04/11/2021 02:30:00,04/11/2021 03:00:00,6,Southward at Benmore,-0.013,-26,-26
04/11/2021 03:00:00,04/11/2021 03:30:00,7,Southward at Benmore,-0.014,-29,-29
04/11/2021 03:30:00,04/11/2021 04:00:00,8,Southward at Benmore,-0.007,-15,-15
04/11/2021 04:00:00,04/11/2021 04:30:00,9,Northward at Haywards,0.004,7,7
04/11/2021 04:30:00,04/11/2021 05:00:00,10,Northward at Haywards,0.033,65,65
04/11/2021 05:00:00,04/11/2021 05:30:00,11,Northward at Haywards,0.079,157,157
04/11/2021 05:30:00,04/11/2021 06:00:00,12,Northward at Haywards,0.115,229,229
04/11/2021 06:00:00,04/11/2021 06:30:00,13,Northward at Haywards,0.137,274,274
04/11/2021 06:30:00,04/11/2021 07:00:00,14,Northward at Haywards,0.184,368,368
04/11/2021 07:00:00,04/11/2021 07:30:00,15,Northward at Haywards,0.215,430,430
04/11/2021 07:30:00,04/11/2021 08:00:00,16,Northward at Haywards,0.244,487,487
04/11/2021 08:00:00,04/11/2021 08:30:00,17,Northward at Haywards,0.270,540,540
04/11/2021 08:30:00,04/11/2021 09:00:00,18,Northward at Haywards,0.288,575,575
04/11/2021 09:00:00,04/11/2021 09:30:00,19,Northward at Haywards,0.298,596,596
04/11/2021 09:30:00,04/11/2021 10:00:00,20,Northward at Haywards,0.301,602,602
04/11/2021 10:00:00,04/11/2021 10:30:00,21,Northward at Haywards,0.289,577,577
04/11/2021 10:30:00,04/11/2021 11:00:00,22,Northward at Haywards,0.250,500,500
04/11/2021 11:00:00,04/11/2021 11:30:00,23,Northward at Haywards,0.245,490,490
04/11/2021 11:30:00,04/11/2021 12:00:00,24,Northward at Haywards,0.234,467,467
04/11/2021 12:00:00,04/11/2021 12:30:00,25,Northward at Haywards,0.240,479,479
04/11/2021 12:30:00,04/11/2021 13:00:00,26,Northward at Haywards,0.234,467,467
04/11/2021 13:00:00,04/11/2021 13:30:00,27,Northward at Haywards,0.222,444,444
04/11/2021 13:30:00,04/11/2021 14:00:00,28,Northward at Haywards,0.221,442,442
04/11/2021 14:00:00,04/11/2021 14:30:00,29,Northward at Haywards,0.264,528,528
04/11/2021 14:30:00,04/11/2021 15:00:00,30,Northward at Haywards,0.260,519,519
04/11/2021 15:00:00,04/11/2021 15:30:00,31,Northward at Haywards,0.274,547,547
04/11/2021 15:30:00,04/11/2021 16:00:00,32,Northward at Haywards,0.291,582,582
04/11/2021 16:00:00,04/11/2021 16:30:00,33,Northward at Haywards,0.287,573,573
04/11/2021 16:30:00,04/11/2021 17:00:00,34,Northward at Haywards,0.286,571,571
04/11/2021 17:00:00,04/11/2021 17:30:00,35,Northward at Haywards,0.274,547,547
04/11/2021 17:30:00,04/11/2021 18:00:00,36,Northward at Haywards,0.317,633,633
04/11/2021 18:00:00,04/11/2021 18:30:00,37,Northward at Haywards,0.316,632,632
04/11/2021 18:30:00,04/11/2021 19:00:00,38,Northward at Haywards,0.310,619,619
04/11/2021 19:00:00,04/11/2021 19:30:00,39,Northward at Haywards,0.315,629,629
04/11/2021 19:30:00,04/11/2021 20:00:00,40,Northward at Haywards,0.312,623,623
04/11/2021 20:00:00,04/11/2021 20:30:00,41,Northward at Haywards,0.303,605,605
04/11/2021 20:30:00,04/11/2021 21:00:00,42,Northward at Haywards,0.261,521,521
04/11/2021 21:00:00,04/11/2021 21:30:00,43,Northward at Haywards,0.227,453,453
04/11/2021 21:30:00,04/11/2021 22:00:00,44,Northward at Haywards,0.260,520,520
04/11/2021 22:00:00,04/11/2021 22:30:00,45,Northward at Haywards,0.233,466,466
04/11/2021 22:30:00,04/11/2021 23:00:00,46,Northward at Haywards,0.188,375,375
04/11/2021 23:00:00,04/11/2021 23:30:00,47,Northward at Haywards,0.143,286,286
04/11/2021 23:30:00,05/11/2021 00:00:00,48,Northward at Haywards,0.104,208,208
05/11/2021 00:00:00,05/11/2021 00:30:00,1,Northward at Haywards,0.082,164,164
05/11/2021 00:30:00,05/11/2021 01:00:00,2,Northward at Haywards,0.071,142,142
05/11/2021 01:00:00,05/11/2021 01:30:00,3,Northward at Haywards,0.032,64,64
05/11/2021 01:30:00,05/11/2021 02:00:00,4,Northward at Haywards,0.028,56,56
05/11/2021 02:00:00,05/11/2021 02:30:00,5,Northward at Haywards,0.020,40,40
05/11/2021 02:30:00,05/11/2021 03:00:00,6,Northward at Haywards,0.005,10,10
05/11/2021 03:00:00,05/11/2021 03:30:00,7,Northward at Haywards,0.006,12,12
05/11/2021 03:30:00,05/11/2021 04:00:00,8,Northward at Haywards,0.003,6,6
05/11/2021 04:00:00,05/11/2021 04:30:00,9,Northward at Haywards,0.010,20,20
05/11/2021 04:30:00,05/11/2021 05:00:00,10,Northward at Haywards,0.019,37,37
05/11/2021 05:00:00,05/11/2021 05:30:00,11,Northward at Haywards,0.086,171,171
05/11/2021 05:30:00,05/11/2021 06:00:00,12,Northward at Haywards,0.119,237,237
05/11/2021 06:00:00,05/11/2021 06:30:00,13,Northward at Haywards,0.146,292,292
05/11/2021 06:30:00,05/11/2021 07:00:00,14,Northward at Haywards,0.180,359,359
05/11/2021 07:00:00,05/11/2021 07:30:00,15,Northward at Haywards,0.211,422,422
05/11/2021 07:30:00,05/11/2021 08:00:00,16,Northward at Haywards,0.243,485,485
05/11/2021 08:00:00,05/11/2021 08:30:00,17,Northward at Haywards,0.284,568,568
05/11/2021 08:30:00,05/11/2021 09:00:00,18,Northward at Haywards,0.306,612,612
05/11/2021 09:00:00,05/11/2021 09:30:00,19,Northward at Haywards,0.302,603,603
05/11/2021 09:30:00,05/11/2021 10:00:00,20,Northward at Haywards,0.298,595,595
05/11/2021 10:00:00,05/11/2021 10:30:00,21,Northward at Haywards,0.296,591,591
05/11/2021 10:30:00,05/11/2021 11:00:00,22,Northward at Haywards,0.284,568,568
05/11/2021 11:00:00,05/11/2021 11:30:00,23,Northward at Haywards,0.286,571,571
05/11/2021 11:30:00,05/11/2021 12:00:00,24,Northward at Haywards,0.305,609,609
05/11/2021 12:00:00,05/11/2021 12:30:00,25,Northward at Haywards,0.286,572,572
05/11/2021 12:30:00,05/11/2021 13:00:00,26,Northward at Haywards,0.289,578,578
05/11/2021 13:00:00,05/11/2021 13:30:00,27,Northward at Haywards,0.263,526,526
05/11/2021 13:30:00,05/11/2021 14:00:00,28,Northward at Haywards,0.261,522,522
05/11/2021 14:00:00,05/11/2021 14:30:00,29,Northward at Haywards,0.254,508,508
05/11/2021 14:30:00,05/11/2021 15:00:00,30,Northward at Haywards,0.265,530,530
05/11/2021 15:00:00,05/11/2021 15:30:00,31,Northward at Haywards,0.271,541,541
05/11/2021 15:30:00,05/11/2021 16:00:00,32,Northward at Haywards,0.268,536,536
05/11/2021 16:00:00,05/11/2021 16:30:00,33,Northward at Haywards,0.261,522,522
05/11/2021 16:30:00,05/11/2021 17:00:00,34,Northward at Haywards,0.247,493,493
05/11/2021 17:00:00,05/11/2021 17:30:00,35,Northward at Haywards,0.235,470,470
05/11/2021 17:30:00,05/11/2021 18:00:00,36,Northward at Haywards,0.260,520,520
05/11/2021 18:00:00,05/11/2021 18:30:00,37,Northward at Haywards,0.245,489,489
05/11/2021 18:30:00,05/11/2021 19:00:00,38,Northward at Haywards,0.244,487,487
05/11/2021 19:00:00,05/11/2021 19:30:00,39,Northward at Haywards,0.232,464,464
05/11/2021 19:30:00,05/11/2021 20:00:00,40,Northward at Haywards,0.216,432,432
05/11/2021 20:00:00,05/11/2021 20:30:00,41,Northward at Haywards,0.219,437,437
05/11/2021 20:30:00,05/11/2021 21:00:00,42,Northward at Haywards,0.179,358,358
05/11/2021 21:00:00,05/11/2021 21:30:00,43,Northward at Haywards,0.148,295,295
05/11/2021 21:30:00,05/11/2021 22:00:00,44,Northward at Haywards,0.129,257,257
05/11/2021 22:00:00,05/11/2021 22:30:00,45,Northward at Haywards,0.122,244,244
05/11/2021 22:30:00,05/11/2021 23:00:00,46,Northward at Haywards,0.106,211,211
05/11/2021 23:00:00,05/11/2021 23:30:00,47,Northward at Haywards,0.058,116,116
05/11/2021 23:30:00,06/11/2021 00:00:00,48,Northward at Haywards,0.068,135,135
06/11/2021 00:00:00,06/11/2021 00:30:00,1,Northward at Haywards,0.027,54,54
06/11/2021 00:30:00,06/11/2021 01:00:00,2,Southward at Benmore,-0.028,-56,-56
06/11/2021 01:00:00,06/11/2021 01:30:00,3,Southward at Benmore,-0.042,-85,-85
06/11/2021 01:30:00,06/11/2021 02:00:00,4,Southward at Benmore,-0.018,-37,-37
06/11/2021 02:00:00,06/11/2021 02:30:00,5,Southward at Benmore,-0.024,-49,-49
06/11/2021 02:30:00,06/11/2021 03:00:00,6,Southward at Benmore,-0.037,-74,-74
06/11/2021 03:00:00,06/11/2021 03:30:00,7,Southward at Benmore,-0.029,-59,-59
06/11/2021 03:30:00,06/11/2021 04:00:00,8,Southward at Benmore,-0.010,-20,-20
06/11/2021 04:00:00,06/11/2021 04:30:00,9,Southward at Benmore,0.000,0,0
06/11/2021 04:30:00,06/11/2021 05:00:00,10,Southward at Benmore,-0.014,-28,-28
06/11/2021 05:00:00,06/11/2021 05:30:00,11,Northward at Haywards,0.004,7,7
06/11/2021 05:30:00,06/11/2021 06:00:00,12,Northward at Haywards,0.024,47,47
06/11/2021 06:00:00,06/11/2021 06:30:00,13,Northward at Haywards,0.058,115,115
06/11/2021 06:30:00,06/11/2021 07:00:00,14,Northward at Haywards,0.063,125,125
06/11/2021 07:00:00,06/11/2021 07:30:00,15,Northward at Haywards,0.089,178,178
06/11/2021 07:30:00,06/11/2021 08:00:00,16,Northward at Haywards,0.106,211,211
06/11/2021 08:00:00,06/11/2021 08:30:00,17,Northward at Haywards,0.095,190,190
06/11/2021 08:30:00,06/11/2021 09:00:00,18,Northward at Haywards,0.131,261,261
06/11/2021 09:00:00,06/11/2021 09:30:00,19,Northward at Haywards,0.161,322,322
06/11/2021 09:30:00,06/11/2021 10:00:00,20,Northward at Haywards,0.161,322,322
06/11/2021 10:00:00,06/11/2021 10:30:00,21,Northward at Haywards,0.167,333,333
06/11/2021 10:30:00,06/11/2021 11:00:00,22,Northward at Haywards,0.162,323,323
06/11/2021 11:00:00,06/11/2021 11:30:00,23,Northward at Haywards,0.150,299,299
06/11/2021 11:30:00,06/11/2021 12:00:00,24,Northward at Haywards,0.141,281,281
06/11/2021 12:00:00,06/11/2021 12:30:00,25,Northward at Haywards,0.126,252,252
06/11/2021 12:30:00,06/11/2021 13:00:00,26,Northward at Haywards,0.125,250,250
06/11/2021 13:00:00,06/11/2021 13:30:00,27,Northward at Haywards,0.148,296,296
06/11/2021 13:30:00,06/11/2021 14:00:00,28,Northward at Haywards,0.133,266,266
06/11/2021 14:00:00,06/11/2021 14:30:00,29,Northward at Haywards,0.121,242,242
06/11/2021 14:30:00,06/11/2021 15:00:00,30,Northward at Haywards,0.140,279,279
06/11/2021 15:00:00,06/11/2021 15:30:00,31,Northward at Haywards,0.165,330,330
06/11/2021 15:30:00,06/11/2021 16:00:00,32,Northward at Haywards,0.192,383,383
06/11/2021 16:00:00,06/11/2021 16:30:00,33,Northward at Haywards,0.188,376,376
06/11/2021 16:30:00,06/11/2021 17:00:00,34,Northward at Haywards,0.201,401,401
06/11/2021 17:00:00,06/11/2021 17:30:00,35,Northward at Haywards,0.224,447,447
06/11/2021 17:30:00,06/11/2021 18:00:00,36,Northward at Haywards,0.225,450,450
06/11/2021 18:00:00,06/11/2021 18:30:00,37,Northward at Haywards,0.233,466,466
06/11/2021 18:30:00,06/11/2021 19:00:00,38,Northward at Haywards,0.238,476,476
06/11/2021 19:00:00,06/11/2021 19:30:00,39,Northward at Haywards,0.220,439,439
06/11/2021 19:30:00,06/11/2021 20:00:00,40,Northward at Haywards,0.229,457,457
06/11/2021 20:00:00,06/11/2021 20:30:00,41,Northward at Haywards,0.239,477,477
06/11/2021 20:30:00,06/11/2021 21:00:00,42,Northward at Haywards,0.253,505,505
06/11/2021 21:00:00,06/11/2021 21:30:00,43,Northward at Haywards,0.255,509,509
06/11/2021 21:30:00,06/11/2021 22:00:00,44,Northward at Haywards,0.229,457,457
06/11/2021 22:00:00,06/11/2021 22:30:00,45,Northward at Haywards,0.173,345,345
06/11/2021 22:30:00,06/11/2021 23:00:00,46,Northward at Haywards,0.145,289,289
06/11/2021 23:00:00,06/11/2021 23:30:00,47,Northward at Haywards,0.159,317,317
06/11/2021 23:30:00,07/11/2021 00:00:00,48,Northward at Haywards,0.143,286,286
07/11/2021 00:00:00,07/11/2021 00:30:00,1,Northward at Haywards,0.133,265,265
07/11/2021 00:30:00,07/11/2021 01:00:00,2,Northward at Haywards,0.124,248,248
07/11/2021 01:00:00,07/11/2021 01:30:00,3,Northward at Haywards,0.123,245,245
07/11/2021 01:30:00,07/11/2021 02:00:00,4,Northward at Haywards,0.109,217,217
07/11/2021 02:00:00,07/11/2021 02:30:00,5,Northward at Haywards,0.107,214,214
07/11/2021 02:30:00,07/11/2021 03:00:00,6,Northward at Haywards,0.095,189,189
07/11/2021 03:00:00,07/11/2021 03:30:00,7,Northward at Haywards,0.087,174,174
07/11/2021 03:30:00,07/11/2021 04:00:00,8,Northward at Haywards,0.083,165,165
07/11/2021 04:00:00,07/11/2021 04:30:00,9,Northward at Haywards,0.082,164,164
07/11/2021 04:30:00,07/11/2021 05:00:00,10,Northward at Haywards,0.094,188,188
07/11/2021 05:00:00,07/11/2021 05:30:00,11,Northward at Haywards,0.114,227,227
07/11/2021 05:30:00,07/11/2021 06:00:00,12,Northward at Haywards,0.132,263,263
07/11/2021 06:00:00,07/11/2021 06:30:00,13,Northward at Haywards,0.142,283,283
07/11/2021 06:30:00,07/11/2021 07:00:00,14,Northward at Haywards,0.164,328,328
07/11/2021 07:00:00,07/11/2021 07:30:00,15,Northward at Haywards,0.191,381,381
07/11/2021 07:30:00,07/11/2021 08:00:00,16,Northward at Haywards,0.176,351,351
07/11/2021 08:00:00,07/11/2021 08:30:00,17,Northward at Haywards,0.233,466,466
07/11/2021 08:30:00,07/11/2021 09:00:00,18,Northward at Haywards,0.260,519,519
07/11/2021 09:00:00,07/11/2021 09:30:00,19,Northward at Haywards,0.289,577,577
07/11/2021 09:30:00,07/11/2021 10:00:00,20,Northward at Haywards,0.314,628,628
07/11/2021 10:00:00,07/11/2021 10:30:00,21,Northward at Haywards,0.306,612,612
07/11/2021 10:30:00,07/11/2021 11:00:00,22,Northward at Haywards,0.292,584,584
07/11/2021 11:00:00,07/11/2021 11:30:00,23,Northward at Haywards,0.283,565,565
07/11/2021 11:30:00,07/11/2021 12:00:00,24,Northward at Haywards,0.273,545,545
07/11/2021 12:00:00,07/11/2021 12:30:00,25,Northward at Haywards,0.275,549,549
07/11/2021 12:30:00,07/11/2021 13:00:00,26,Northward at Haywards,0.277,553,553
07/11/2021 13:00:00,07/11/2021 13:30:00,27,Northward at Haywards,0.277,553,553
07/11/2021 13:30:00,07/11/2021 14:00:00,28,Northward at Haywards,0.262,523,523
07/11/2021 14:00:00,07/11/2021 14:30:00,29,Northward at Haywards,0.256,512,512
07/11/2021 14:30:00,07/11/2021 15:00:00,30,Northward at Haywards,0.261,522,522
07/11/2021 15:00:00,07/11/2021 15:30:00,31,Northward at Haywards,0.271,541,541
07/11/2021 15:30:00,07/11/2021 16:00:00,32,Northward at Haywards,0.270,540,540
07/11/2021 16:00:00,07/11/2021 16:30:00,33,Northward at Haywards,0.288,576,576
07/11/2021 16:30:00,07/11/2021 17:00:00,34,Northward at Haywards,0.298,595,595
07/11/2021 17:00:00,07/11/2021 17:30:00,35,Northward at Haywards,0.310,619,619
07/11/2021 17:30:00,07/11/2021 18:00:00,36,Northward at Haywards,0.317,634,634
07/11/2021 18:00:00,07/11/2021 18:30:00,37,Northward at Haywards,0.310,619,619
07/11/2021 18:30:00,07/11/2021 19:00:00,38,Northward at Haywards,0.304,607,607
07/11/2021 19:00:00,07/11/2021 19:30:00,39,Northward at Haywards,0.298,595,595
07/11/2021 19:30:00,07/11/2021 20:00:00,40,Northward at Haywards,0.280,560,560
07/11/2021 20:00:00,07/11/2021 20:30:00,41,Northward at Haywards,0.292,583,583
07/11/2021 20:30:00,07/11/2021 21:00:00,42,Northward at Haywards,0.291,581,581
07/11/2021 21:00:00,07/11/2021 21:30:00,43,Northward at Haywards,0.250,499,499
07/11/2021 21:30:00,07/11/2021 22:00:00,44,Northward at Haywards,0.224,447,447
07/11/2021 22:00:00,07/11/2021 22:30:00,45,Northward at Haywards,0.193,385,385
07/11/2021 22:30:00,07/11/2021 23:00:00,46,Northward at Haywards,0.136,272,272
07/11/2021 23:00:00,07/11/2021 23:30:00,47,Northward at Haywards,0.145,289,289
07/11/2021 23:30:00,08/11/2021 00:00:00,48,Northward at Haywards,0.108,215,215
08/11/2021 00:00:00,08/11/2021 00:30:00,1,Northward at Haywards,0.109,218,218
08/11/2021 00:30:00,08/11/2021 01:00:00,2,Northward at Haywards,0.094,187,187
08/11/2021 01:00:00,08/11/2021 01:30:00,3,Northward at Haywards,0.086,171,171
08/11/2021 01:30:00,08/11/2021 02:00:00,4,Northward at Haywards,0.086,171,171
08/11/2021 02:00:00,08/11/2021 02:30:00,5,Northward at Haywards,0.080,160,160
08/11/2021 02:30:00,08/11/2021 03:00:00,6,Northward at Haywards,0.067,133,133
08/11/2021 03:00:00,08/11/2021 03:30:00,7,Northward at Haywards,0.068,135,135
08/11/2021 03:30:00,08/11/2021 04:00:00,8,Northward at Haywards,0.067,134,134
08/11/2021 04:00:00,08/11/2021 04:30:00,9,Northward at Haywards,0.071,141,141
08/11/2021 04:30:00,08/11/2021 05:00:00,10,Northward at Haywards,0.078,155,155
08/11/2021 05:00:00,08/11/2021 05:30:00,11,Northward at Haywards,0.117,234,234
08/11/2021 05:30:00,08/11/2021 06:00:00,12,Northward at Haywards,0.170,339,339
08/11/2021 06:00:00,08/11/2021 06:30:00,13,Northward at Haywards,0.252,503,503
08/11/2021 06:30:00,08/11/2021 07:00:00,14,Northward at Haywards,0.246,492,492
08/11/2021 07:00:00,08/11/2021 07:30:00,15,Northward at Haywards,0.307,613,613
08/11/2021 07:30:00,08/11/2021 08:00:00,16,Northward at Haywards,0.264,527,527
08/11/2021 08:00:00,08/11/2021 08:30:00,17,Northward at Haywards,0.276,552,552
08/11/2021 08:30:00,08/11/2021 09:00:00,18,Northward at Haywards,0.278,555,555
08/11/2021 09:00:00,08/11/2021 09:30:00,19,Northward at Haywards,0.278,555,555
08/11/2021 09:30:00,08/11/2021 10:00:00,20,Northward at Haywards,0.275,550,550
08/11/2021 10:00:00,08/11/2021 10:30:00,21,Northward at Haywards,0.268,535,535
08/11/2021 10:30:00,08/11/2021 11:00:00,22,Northward at Haywards,0.306,611,611
08/11/2021 11:00:00,08/11/2021 11:30:00,23,Northward at Haywards,0.308,616,616
08/11/2021 11:30:00,08/11/2021 12:00:00,24,Northward at Haywards,0.286,572,572
08/11/2021 12:00:00,08/11/2021 12:30:00,25,Northward at Haywards,0.284,568,568
08/11/2021 12:30:00,08/11/2021 13:00:00,26,Northward at Haywards,0.291,581,581
08/11/2021 13:00:00,08/11/2021 13:30:00,27,Northward at Haywards,0.291,582,582
08/11/2021 13:30:00,08/11/2021 14:00:00,28,Northward at Haywards,0.290,579,579
08/11/2021 14:00:00,08/11/2021 14:30:00,29,Northward at Haywards,0.285,570,570
08/11/2021 14:30:00,08/11/2021 15:00:00,30,Northward at Haywards,0.281,561,561
08/11/2021 15:00:00,08/11/2021 15:30:00,31,Northward at Haywards,0.280,560,560
08/11/2021 15:30:00,08/11/2021 16:00:00,32,Northward at Haywards,0.270,539,539
08/11/2021 16:00:00,08/11/2021 16:30:00,33,Northward at Haywards,0.263,525,525
08/11/2021 16:30:00,08/11/2021 17:00:00,34,Northward at Haywards,0.268,536,536
08/11/2021 17:00:00,08/11/2021 17:30:00,35,Northward at Haywards,0.285,569,569
08/11/2021 17:30:00,08/11/2021 18:00:00,36,Northward at Haywards,0.266,531,531
08/11/2021 18:00:00,08/11/2021 18:30:00,37,Northward at Haywards,0.267,533,533
08/11/2021 18:30:00,08/11/2021 19:00:00,38,Northward at Haywards,0.277,553,553
08/11/2021 19:00:00,08/11/2021 19:30:00,39,Northward at Haywards,0.263,526,526
08/11/2021 19:30:00,08/11/2021 20:00:00,40,Northward at Haywards,0.265,529,529
08/11/2021 20:00:00,08/11/2021 20:30:00,41,Northward at Haywards,0.284,568,568
08/11/2021 20:30:00,08/11/2021 21:00:00,42,Northward at Haywards,0.274,548,548
08/11/2021 21:00:00,08/11/2021 21:30:00,43,Northward at Haywards,0.236,472,472
08/11/2021 21:30:00,08/11/2021 22:00:00,44,Northward at Haywards,0.183,365,365
08/11/2021 22:00:00,08/11/2021 22:30:00,45,Northward at Haywards,0.142,283,283
08/11/2021 22:30:00,08/11/2021 23:00:00,46,Northward at Haywards,0.142,284,284
08/11/2021 23:00:00,08/11/2021 23:30:00,47,Northward at Haywards,0.106,211,211
08/11/2021 23:30:00,09/11/2021 00:00:00,48,Northward at Haywards,0.082,164,164
09/11/2021 00:00:00,09/11/2021 00:30:00,1,Northward at Haywards,0.058,116,116
09/11/2021 00:30:00,09/11/2021 01:00:00,2,Northward at Haywards,0.026,52,52
09/11/2021 01:00:00,09/11/2021 01:30:00,3,Northward at Haywards,0.003,5,5
09/11/2021 01:30:00,09/11/2021 02:00:00,4,Southward at Benmore,-0.013,-26,-26
09/11/2021 02:00:00,09/11/2021 02:30:00,5,Southward at Benmore,-0.018,-37,-37
09/11/2021 02:30:00,09/11/2021 03:00:00,6,Southward at Benmore,-0.023,-47,-47
09/11/2021 03:00:00,09/11/2021 03:30:00,7,Southward at Benmore,-0.031,-62,-62
09/11/2021 03:30:00,09/11/2021 04:00:00,8,Southward at Benmore,-0.027,-55,-55
09/11/2021 04:00:00,09/11/2021 04:30:00,9,Southward at Benmore,-0.014,-29,-29
09/11/2021 04:30:00,09/11/2021 05:00:00,10,Northward at Haywards,0.003,6,6
09/11/2021 05:00:00,09/11/2021 05:30:00,11,Northward at Haywards,0.051,102,102
09/11/2021 05:30:00,09/11/2021 06:00:00,12,Northward at Haywards,0.117,233,233
09/11/2021 06:00:00,09/11/2021 06:30:00,13,Northward at Haywards,0.172,343,343
09/11/2021 06:30:00,09/11/2021 07:00:00,14,Northward at Haywards,0.193,385,385
09/11/2021 07:00:00,09/11/2021 07:30:00,15,Northward at Haywards,0.248,495,495
09/11/2021 07:30:00,09/11/2021 08:00:00,16,Northward at Haywards,0.262,523,523
09/11/2021 08:00:00,09/11/2021 08:30:00,17,Northward at Haywards,0.207,413,413
09/11/2021 08:30:00,09/11/2021 09:00:00,18,Northward at Haywards,0.214,428,428
09/11/2021 09:00:00,09/11/2021 09:30:00,19,Northward at Haywards,0.228,455,455
09/11/2021 09:30:00,09/11/2021 10:00:00,20,Northward at Haywards,0.236,471,471
09/11/2021 10:00:00,09/11/2021 10:30:00,21,Northward at Haywards,0.245,490,490
09/11/2021 10:30:00,09/11/2021 11:00:00,22,Northward at Haywards,0.233,465,465
09/11/2021 11:00:00,09/11/2021 11:30:00,23,Northward at Haywards,0.236,472,472
09/11/2021 11:30:00,09/11/2021 12:00:00,24,Northward at Haywards,0.262,524,524
09/11/2021 12:00:00,09/11/2021 12:30:00,25,Northward at Haywards,0.267,534,534
09/11/2021 12:30:00,09/11/2021 13:00:00,26,Northward at Haywards,0.270,539,539
09/11/2021 13:00:00,09/11/2021 13:30:00,27,Northward at Haywards,0.271,542,542
09/11/2021 13:30:00,09/11/2021 14:00:00,28,Northward at Haywards,0.261,522,522
09/11/2021 14:00:00,09/11/2021 14:30:00,29,Northward at Haywards,0.259,518,518
09/11/2021 14:30:00,09/11/2021 15:00:00,30,Northward at Haywards,0.243,485,485
09/11/2021 15:00:00,09/11/2021 15:30:00,31,Northward at Haywards,0.285,570,570
09/11/2021 15:30:00,09/11/2021 16:00:00,32,Northward at Haywards,0.256,512,512
09/11/2021 16:00:00,09/11/2021 16:30:00,33,Northward at Haywards,0.254,508,508
09/11/2021 16:30:00,09/11/2021 17:00:00,34,Northward at Haywards,0.255,509,509
09/11/2021 17:00:00,09/11/2021 17:30:00,35,Northward at Haywards,0.256,511,511
09/11/2021 17:30:00,09/11/2021 18:00:00,36,Northward at Haywards,0.273,545,545
09/11/2021 18:00:00,09/11/2021 18:30:00,37,Northward at Haywards,0.245,490,490
09/11/2021 18:30:00,09/11/2021 19:00:00,38,Northward at Haywards,0.247,494,494
09/11/2021 19:00:00,09/11/2021 19:30:00,39,Northward at Haywards,0.205,410,410
09/11/2021 19:30:00,09/11/2021 20:00:00,40,Northward at Haywards,0.203,406,406
09/11/2021 20:00:00,09/11/2021 20:30:00,41,Northward at Haywards,0.207,413,413
09/11/2021 20:30:00,09/11/2021 21:00:00,42,Northward at Haywards,0.204,407,407
09/11/2021 21:00:00,09/11/2021 21:30:00,43,Northward at Haywards,0.173,345,345
09/11/2021 21:30:00,09/11/2021 22:00:00,44,Northward at Haywards,0.167,333,333
09/11/2021 22:00:00,09/11/2021 22:30:00,45,Northward at Haywards,0.151,302,302
09/11/2021 22:30:00,09/11/2021 23:00:00,46,Northward at Haywards,0.132,263,263
09/11/2021 23:00:00,09/11/2021 23:30:00,47,Northward at Haywards,0.095,190,190
09/11/2021 23:30:00,10/11/2021 00:00:00,48,Northward at Haywards,0.092,183,183
10/11/2021 00:00:00,10/11/2021 00:30:00,1,Northward at Haywards,0.109,218,218
10/11/2021 00:30:00,10/11/2021 01:00:00,2,Northward at Haywards,0.095,190,190
10/11/2021 01:00:00,10/11/2021 01:30:00,3,Northward at Haywards,0.074,148,148
10/11/2021 01:30:00,10/11/2021 02:00:00,4,Northward at Haywards,0.061,122,122
10/11/2021 02:00:00,10/11/2021 02:30:00,5,Northward at Haywards,0.055,110,110
10/11/2021 02:30:00,10/11/2021 03:00:00,6,Northward at Haywards,0.050,100,100
10/11/2021 03:00:00,10/11/2021 03:30:00,7,Northward at Haywards,0.041,81,81
10/11/2021 03:30:00,10/11/2021 04:00:00,8,Northward at Haywards,0.034,68,68
10/11/2021 04:00:00,10/11/2021 04:30:00,9,Northward at Haywards,0.044,87,87